Time,TemperatureF,DewpointF,PressureIn,WindDirection,WindDirectionDegrees,WindSpeedMPH,WindSpeedGustMPH,Humidity,HourlyPrecipIn,Conditions,Clouds,dailyrainin,SoftwareType,DateUTC
2013-07-04 00:02:00,61.0,59.0,30.11,West,263,1.0,3.0,94,0.00,,,0.00,,2013-07-04 04:02:00,
2013-07-04 00:11:00,61.0,59.0,30.11,West,263,1.0,3.0,94,0.00,,,0.00,,2013-07-04 04:11:00,
2013-07-04 00:33:00,61.0,59.0,30.10,WSW,252,1.0,4.0,94,0.00,,,0.00,,2013-07-04 04:33:00,
2013-07-04 00:43:00,61.0,59.0,30.10,WSW,254,1.0,4.0,94,0.00,,,0.00,,2013-07-04 04:43:00,
2013-07-04 00:52:00,61.0,59.0,30.10,WSW,254,1.0,4.0,94,0.00,,,0.00,,2013-07-04 04:52:00,
2013-07-04 01:02:00,61.0,59.0,30.10,WSW,245,2.0,4.0,94,0.00,,,0.00,,2013-07-04 05:02:00,
2013-07-04 01:33:00,61.0,60.0,30.10,West,259,2.0,4.0,95,0.00,,,0.00,,2013-07-04 05:33:00,
2013-07-04 01:43:00,61.0,60.0,30.10,WSW,246,4.0,5.0,95,0.00,,,0.00,,2013-07-04 05:43:00,
2013-07-04 01:52:00,61.0,60.0,30.10,SW,235,4.0,6.0,95,0.00,,,0.00,,2013-07-04 05:52:00,
2013-07-04 02:01:00,61.0,60.0,30.10,WSW,249,3.0,5.0,95,0.00,,,0.00,,2013-07-04 06:01:00,
2013-07-04 02:11:00,61.0,60.0,30.10,WSW,240,3.0,6.0,95,0.00,,,0.00,,2013-07-04 06:11:00,
2013-07-04 02:22:00,61.0,60.0,30.10,WSW,243,4.0,6.0,95,0.00,,,0.00,,2013-07-04 06:22:00,
2013-07-04 02:34:00,61.0,60.0,30.10,WSW,243,3.0,5.0,95,0.00,,,0.00,,2013-07-04 06:34:00,
2013-07-04 02:43:00,61.0,60.0,30.09,SW,234,3.0,6.0,95,0.00,,,0.00,,2013-07-04 06:43:00,
2013-07-04 02:53:00,61.0,60.0,30.09,WSW,241,3.0,5.0,95,0.00,,,0.00,,2013-07-04 06:53:00,
2013-07-04 03:02:00,61.0,60.0,30.09,SW,217,3.0,6.0,95,0.00,,,0.00,,2013-07-04 07:02:00,
2013-07-04 03:12:00,61.0,60.0,30.10,WSW,258,3.0,5.0,95,0.00,,,0.00,,2013-07-04 07:12:00,
2013-07-04 03:34:00,61.0,60.0,30.09,West,278,2.0,3.0,95,0.00,,,0.00,,2013-07-04 07:34:00,
2013-07-04 03:52:00,61.0,60.0,30.09,West,261,2.0,4.0,95,0.00,,,0.00,,2013-07-04 07:52:00,
2013-07-04 04:02:00,62.0,61.0,30.09,WSW,256,3.0,4.0,96,0.00,,,0.00,,2013-07-04 08:02:00,
2013-07-04 04:22:00,61.0,60.0,30.09,WSW,244,1.0,2.0,95,0.00,,,0.00,,2013-07-04 08:22:00,
2013-07-04 04:33:00,61.0,60.0,30.09,WSW,251,3.0,5.0,95,0.00,,,0.00,,2013-07-04 08:33:00,
2013-07-04 04:42:00,62.0,61.0,30.09,WSW,238,4.0,5.0,96,0.00,,,0.00,,2013-07-04 08:42:00,
2013-07-04 04:53:00,62.0,61.0,30.10,West,261,2.0,6.0,96,0.00,,,0.00,,2013-07-04 08:53:00,
2013-07-04 05:02:00,61.0,60.0,30.10,WSW,252,4.0,6.0,95,0.00,,,0.00,,2013-07-04 09:02:00,
2013-07-04 05:11:00,61.0,60.0,30.10,WSW,252,4.0,6.0,95,0.00,,,0.00,,2013-07-04 09:11:00,
2013-07-04 06:01:00,63.0,62.0,30.11,West,261,3.0,6.0,96,0.00,,,0.00,,2013-07-04 10:01:00,
2013-07-04 06:11:00,63.0,62.0,30.11,West,261,3.0,6.0,96,0.00,,,0.00,,2013-07-04 10:11:00,
2013-07-04 06:53:00,65.0,64.0,30.13,West,271,3.0,5.0,95,0.00,,,0.00,,2013-07-04 10:53:00,
2013-07-04 07:02:00,66.0,65.0,30.13,West,265,3.0,5.0,95,0.00,,,0.00,,2013-07-04 11:02:00,
2013-07-04 07:12:00,67.0,65.0,30.13,WSW,244,4.0,7.0,94,0.00,,,0.00,,2013-07-04 11:12:00,
2013-07-04 07:34:00,68.0,66.0,30.14,West,267,3.0,7.0,92,0.00,,,0.00,,2013-07-04 11:34:00,
2013-07-04 07:43:00,69.0,66.0,30.14,WSW,243,4.0,6.0,90,0.00,,,0.00,,2013-07-04 11:43:00,
2013-07-04 08:02:00,70.0,66.0,30.14,WSW,250,4.0,5.0,88,0.00,,,0.00,,2013-07-04 12:02:00,
2013-07-04 08:33:00,73.0,67.0,30.14,West,259,2.0,4.0,82,0.00,,,0.00,,2013-07-04 12:33:00,
2013-07-04 08:43:00,74.0,67.0,30.14,West,261,3.0,6.0,80,0.00,,,0.00,,2013-07-04 12:43:00,
2013-07-04 09:33:00,79.0,70.0,30.14,WNW,292,5.0,8.0,73,0.00,,,0.00,,2013-07-04 13:33:00,
2013-07-04 09:43:00,80.0,69.0,30.14,West,269,5.0,14.0,70,0.00,,,0.00,,2013-07-04 13:43:00,
2013-07-04 09:53:00,80.0,69.0,30.14,West,269,5.0,14.0,70,0.00,,,0.00,,2013-07-04 13:53:00,
2013-07-04 10:02:00,80.0,68.0,30.14,West,271,7.0,10.0,68,0.00,,,0.00,,2013-07-04 14:02:00,
2013-07-04 10:12:00,80.0,68.0,30.14,West,271,7.0,10.0,68,0.00,,,0.00,,2013-07-04 14:12:00,
2013-07-04 10:22:00,81.0,69.0,30.14,WNW,282,8.0,11.0,68,0.00,,,0.00,,2013-07-04 14:22:00,
2013-07-04 10:43:00,80.0,68.0,30.13,West,268,9.0,12.0,68,0.00,,,0.00,,2013-07-04 14:43:00,
2013-07-04 10:53:00,80.0,68.0,30.13,West,268,9.0,12.0,68,0.00,,,0.00,,2013-07-04 14:53:00,
2013-07-04 11:02:00,81.0,69.0,30.13,WNW,295,9.0,13.0,67,0.00,,,0.00,,2013-07-04 15:02:00,
2013-07-04 11:11:00,81.0,69.0,30.13,West,275,7.0,13.0,67,0.00,,,0.00,,2013-07-04 15:11:00,
2013-07-04 11:33:00,82.0,68.0,30.13,WSW,257,8.0,15.0,63,0.00,,,0.00,,2013-07-04 15:33:00,
2013-07-04 11:43:00,82.0,68.0,30.12,West,281,9.0,13.0,63,0.00,,,0.00,,2013-07-04 15:43:00,
2013-07-04 11:52:00,83.0,67.0,30.12,WSW,255,8.0,13.0,59,0.00,,,0.00,,2013-07-04 15:52:00,
2013-07-04 12:02:00,83.0,70.0,30.12,West,267,6.0,15.0,65,0.00,,,0.00,,2013-07-04 16:02:00,
2013-07-04 12:11:00,83.0,69.0,30.11,WNW,291,8.0,14.0,62,0.00,,,0.00,,2013-07-04 16:11:00,
2013-07-04 12:22:00,83.0,67.0,30.12,WSW,254,11.0,15.0,59,0.00,,,0.00,,2013-07-04 16:22:00,
2013-07-04 12:33:00,83.0,67.0,30.12,WNW,300,10.0,15.0,59,0.00,,,0.00,,2013-07-04 16:33:00,
2013-07-04 12:43:00,84.0,67.0,30.12,West,277,9.0,15.0,57,0.00,,,0.00,,2013-07-04 16:43:00,
2013-07-04 12:52:00,85.0,68.0,30.11,WSW,256,10.0,16.0,56,0.00,,,0.00,,2013-07-04 16:52:00,
2013-07-04 13:02:00,85.0,68.0,30.11,WSW,258,6.0,14.0,56,0.00,,,0.00,,2013-07-04 17:02:00,
2013-07-04 13:12:00,85.0,68.0,30.11,West,271,8.0,11.0,56,0.00,,,0.00,,2013-07-04 17:12:00,
2013-07-04 13:22:00,85.0,66.0,30.11,NW,314,8.0,12.0,54,0.00,,,0.00,,2013-07-04 17:22:00,
2013-07-04 13:34:00,85.0,68.0,30.10,WSW,252,6.0,12.0,57,0.00,,,0.00,,2013-07-04 17:34:00,
2013-07-04 13:43:00,85.0,68.0,30.10,West,275,8.0,11.0,56,0.00,,,0.00,,2013-07-04 17:43:00,
2013-07-04 13:53:00,85.0,68.0,30.10,WSW,258,8.0,13.0,57,0.00,,,0.00,,2013-07-04 17:53:00,
2013-07-04 14:01:00,86.0,67.0,30.09,WNW,283,5.0,14.0,54,0.00,,,0.00,,2013-07-04 18:01:00,
2013-07-04 14:11:00,86.0,67.0,30.10,West,271,7.0,11.0,53,0.00,,,0.00,,2013-07-04 18:11:00,
2013-07-04 14:22:00,85.0,69.0,30.10,South,182,5.0,10.0,58,0.00,,,0.00,,2013-07-04 18:22:00,
2013-07-04 14:33:00,85.0,68.0,30.10,South,188,5.0,8.0,57,0.00,,,0.00,,2013-07-04 18:33:00,
2013-07-04 14:43:00,84.0,70.0,30.09,South,171,7.0,9.0,63,0.00,,,0.00,,2013-07-04 18:43:00,
2013-07-04 14:52:00,84.0,70.0,30.09,South,169,5.0,10.0,63,0.00,,,0.00,,2013-07-04 18:52:00,
2013-07-04 15:02:00,83.0,70.0,30.09,South,177,7.0,12.0,65,0.00,,,0.00,,2013-07-04 19:02:00,
2013-07-04 15:12:00,82.0,69.0,30.09,SSE,165,6.0,13.0,64,0.00,,,0.00,,2013-07-04 19:12:00,
2013-07-04 15:22:00,83.0,70.0,30.09,South,172,7.0,12.0,64,0.00,,,0.00,,2013-07-04 19:22:00,
2013-07-04 15:33:00,83.0,70.0,30.08,SSE,167,7.0,12.0,64,0.00,,,0.00,,2013-07-04 19:33:00,
2013-07-04 15:43:00,83.0,70.0,30.08,SSE,167,8.0,11.0,65,0.00,,,0.00,,2013-07-04 19:43:00,
2013-07-04 15:53:00,83.0,70.0,30.08,SSW,194,6.0,11.0,64,0.00,,,0.00,,2013-07-04 19:53:00,
2013-07-04 16:02:00,82.0,69.0,30.08,SSE,162,7.0,12.0,66,0.00,,,0.00,,2013-07-04 20:02:00,
2013-07-04 16:22:00,82.0,69.0,30.07,SSW,202,6.0,10.0,64,0.00,,,0.00,,2013-07-04 20:22:00,
2013-07-04 16:34:00,83.0,70.0,30.07,SSW,194,6.0,11.0,64,0.00,,,0.00,,2013-07-04 20:34:00,
2013-07-04 16:42:00,82.0,69.0,30.07,SSE,163,6.0,12.0,65,0.00,,,0.00,,2013-07-04 20:42:00,
2013-07-04 16:53:00,82.0,69.0,30.06,South,173,7.0,12.0,64,0.00,,,0.00,,2013-07-04 20:53:00,
2013-07-04 17:01:00,82.0,68.0,30.06,SW,223,5.0,10.0,63,0.00,,,0.00,,2013-07-04 21:01:00,
2013-07-04 17:12:00,82.0,68.0,30.06,SSW,207,6.0,10.0,63,0.00,,,0.00,,2013-07-04 21:12:00,
2013-07-04 17:22:00,81.0,68.0,30.05,South,170,7.0,13.0,64,0.00,,,0.00,,2013-07-04 21:22:00,
2013-07-04 17:32:00,81.0,68.0,30.05,SW,232,5.0,10.0,65,0.00,,,0.00,,2013-07-04 21:32:00,
2013-07-04 17:43:00,80.0,68.0,30.05,South,181,6.0,11.0,68,0.00,,,0.00,,2013-07-04 21:43:00,
2013-07-04 17:53:00,80.0,68.0,30.05,SSW,204,5.0,10.0,67,0.00,,,0.00,,2013-07-04 21:53:00,
2013-07-04 18:02:00,80.0,69.0,30.05,SSW,211,2.0,8.0,69,0.00,,,0.00,,2013-07-04 22:02:00,
2013-07-04 18:12:00,79.0,68.0,30.05,SSW,208,3.0,8.0,70,0.00,,,0.00,,2013-07-04 22:12:00,
2013-07-04 18:22:00,79.0,68.0,30.05,SW,227,4.0,9.0,70,0.00,,,0.00,,2013-07-04 22:22:00,
2013-07-04 18:33:00,78.0,68.0,30.06,SW,233,6.0,9.0,72,0.00,,,0.00,,2013-07-04 22:33:00,
2013-07-04 18:43:00,77.0,68.0,30.06,SW,234,4.0,8.0,75,0.00,,,0.00,,2013-07-04 22:43:00,
2013-07-04 18:52:00,77.0,68.0,30.06,SW,234,4.0,8.0,75,0.00,,,0.00,,2013-07-04 22:52:00,
2013-07-04 19:02:00,77.0,69.0,30.05,WSW,239,4.0,9.0,77,0.00,,,0.00,,2013-07-04 23:02:00,
2013-07-04 19:12:00,76.0,68.0,30.05,SSW,198,4.0,7.0,77,0.00,,,0.00,,2013-07-04 23:12:00,
2013-07-04 19:23:00,76.0,69.0,30.05,South,180,6.0,11.0,79,0.00,,,0.00,,2013-07-04 23:23:00,
2013-07-04 19:33:00,76.0,70.0,30.05,SW,215,7.0,11.0,81,0.00,,,0.00,,2013-07-04 23:33:00,
2013-07-04 19:43:00,76.0,70.0,30.06,SW,215,5.0,10.0,82,0.00,,,0.00,,2013-07-04 23:43:00,
2013-07-04 19:52:00,76.0,70.0,30.05,SSW,211,6.0,13.0,82,0.00,,,0.00,,2013-07-04 23:52:00,
2013-07-04 20:01:00,75.0,69.0,30.04,SW,232,4.0,8.0,83,0.00,,,0.00,,2013-07-05 00:01:00,
2013-07-04 20:12:00,75.0,69.0,30.04,SSW,201,5.0,12.0,83,0.00,,,0.00,,2013-07-05 00:12:00,
2013-07-04 20:22:00,75.0,70.0,30.04,WSW,254,5.0,10.0,84,0.00,,,0.00,,2013-07-05 00:22:00,
2013-07-04 20:32:00,75.0,69.0,30.03,WSW,240,5.0,10.0,83,0.00,,,0.00,,2013-07-05 00:32:00,
2013-07-04 20:43:00,75.0,69.0,30.03,WSW,240,5.0,10.0,83,0.00,,,0.00,,2013-07-05 00:43:00,
2013-07-04 20:52:00,74.0,68.0,30.03,SW,234,4.0,11.0,83,0.00,,,0.00,,2013-07-05 00:52:00,
2013-07-04 21:01:00,73.0,68.0,30.03,SSW,194,4.0,7.0,84,0.00,,,0.00,,2013-07-05 01:01:00,
2013-07-04 21:11:00,73.0,68.0,30.03,SSW,194,4.0,7.0,84,0.00,,,0.00,,2013-07-05 01:11:00,
2013-07-04 21:22:00,73.0,68.0,30.03,SW,218,4.0,7.0,85,0.00,,,0.00,,2013-07-05 01:22:00,
2013-07-04 21:32:00,73.0,68.0,30.03,SW,218,4.0,7.0,85,0.00,,,0.00,,2013-07-05 01:32:00,
2013-07-04 21:42:00,73.0,68.0,30.03,SW,218,4.0,7.0,85,0.00,,,0.00,,2013-07-05 01:42:00,
2013-07-04 21:52:00,73.0,69.0,30.04,SSW,205,5.0,8.0,86,0.00,,,0.00,,2013-07-05 01:52:00,
2013-07-04 22:02:00,72.0,68.0,30.03,SSW,200,4.0,8.0,87,0.00,,,0.00,,2013-07-05 02:02:00,
2013-07-04 22:11:00,72.0,68.0,30.03,SSW,200,4.0,8.0,87,0.00,,,0.00,,2013-07-05 02:11:00,
2013-07-04 22:22:00,72.0,68.0,30.03,SSW,204,3.0,8.0,87,0.00,,,0.00,,2013-07-05 02:22:00,
2013-07-04 22:32:00,72.0,68.0,30.03,SSW,204,3.0,8.0,87,0.00,,,0.00,,2013-07-05 02:32:00,
2013-07-04 22:42:00,72.0,68.0,30.04,SW,219,5.0,7.0,87,0.00,,,0.00,,2013-07-05 02:42:00,
2013-07-04 22:53:00,72.0,68.0,30.04,SW,219,5.0,7.0,87,0.00,,,0.00,,2013-07-05 02:53:00,
2013-07-04 23:02:00,71.0,67.0,30.03,SSW,202,3.0,7.0,88,0.00,,,0.00,,2013-07-05 03:02:00,
2013-07-04 23:11:00,71.0,67.0,30.03,SSW,202,3.0,7.0,88,0.00,,,0.00,,2013-07-05 03:11:00,
2013-07-04 23:22:00,71.0,67.0,30.03,SW,218,4.0,8.0,88,0.00,,,0.00,,2013-07-05 03:22:00,
2013-07-04 23:33:00,71.0,67.0,30.03,SW,218,4.0,8.0,88,0.00,,,0.00,,2013-07-05 03:33:00,
2013-07-04 23:42:00,71.0,67.0,30.03,SW,218,4.0,8.0,88,0.00,,,0.00,,2013-07-05 03:42:00,
2013-07-04 23:52:00,71.0,67.0,30.03,SW,218,4.0,8.0,88,0.00,,,0.00,,2013-07-05 03:52:00,